Regional Weather Roundup
Issued by NWS

Home | Current Version | Previous Version | Graphics & Text | Print | Product List | Glossary On
Versions: 1 2 3 4 5 6 7 8 9 10 11 12 13 14 15 16 17 18 19 20 21 22 23 24 25 26 27 28 29 30 31 32 33 34 35 36 37 38 39 40 41 42 43 44 45 46 47 48 49 50
000
ASUS43 KOAX 211010
RWRNE

WEATHER ROUNDUP FOR NEBRASKA
NATIONAL WEATHER SERVICE OMAHA NE
500 AM CDT SAT APR 21 2018

NOTES: SATELLITE DATA IS BEING USED TO AUGMENT CLOUD COVER ABOVE
       12000 FEET.
       "FAIR" INDICATES FEW OR NO CLOUDS BELOW 12,000 FEET WITH NO
       SIGNIFICANT WEATHER AND/OR OBSTRUCTIONS TO VISIBILITY.


NEZ001>004-019>022-054>056-211100-
NEBRASKA PANHANDLE

CITY           SKY/WX    TMP DP  RH WIND       PRES   REMARKS
SCOTTSBLUFF    MIX PCPN  34  32  92 CALM      30.20S
ALLIANCE       LGT RAIN  35  35 100 SE10      30.20S WCI  27
CHADRON        CLOUDY    39  36  89 CALM      30.23F
GORDON         CLOUDY    38  36  94 SE7       30.23F WCI  32
KIMBALL        LGT SNOW  33  33 100 NE5       30.16S WCI  28
SIDNEY         LGT SNOW  33  32  96 E8        30.17S FOG     WCI  26
$$

NEZ057>060-069>072-079>082-211100-
SOUTHWEST NEBRASKA

CITY           SKY/WX    TMP DP  RH WIND       PRES   REMARKS
NORTH PLATTE   LGT RAIN  39  37  92 E13       30.23F WCI  31
IMPERIAL       LGT RAIN  38  38 100 E12       30.19S WCI  30
LEXINGTON      DRIZZLE   41  39  93 E9        30.24S
MCCOOK         LGT RAIN  41  40  96 E9        30.20R
OGALLALA       LGT RAIN  39  37  94 E12       30.21F WCI  31
$$

NEZ005>010-023>029-035>040-094-211100-
NORTH CENTRAL NEBRASKA

CITY           SKY/WX    TMP DP  RH WIND       PRES   REMARKS
VALENTINE      CLOUDY    41  38  89 SE6       30.28S
AINSWORTH      CLOUDY    40  38  94 S8        30.29S WCI  34
BROKEN BOW     LGT RAIN  40  37  89 E8G20     30.25F WCI  34
O`NEILL        CLOUDY    43  37  79 CALM      30.30S
ORD            LGT RAIN  41  40  96 CALM      30.26F FOG
THEDFORD       DRIZZLE   39  38  94 SE8       30.26F WCI  34
$$

NEZ041-046>049-061>064-073>077-083>087-211100-
SOUTH CENTRAL NEBRASKA

CITY           SKY/WX    TMP DP  RH WIND       PRES   REMARKS
GRAND ISLAND   CLOUDY    42  39  89 E5        30.27F
AURORA         CLOUDY    42  40  95 N6        30.25F
HASTINGS       CLOUDY    41  40  96 NE8       30.23F
HEBRON         CLOUDY    44  41  88 E8        30.23F
HOLDREGE       CLOUDY    40  40 100 NE8       30.23R WCI  35
KEARNEY        CLOUDY    40  39  97 E8        30.25F WCI  34
YORK             N/A     43  43 100 N6        30.24F
$$

NEZ011>018-030>034-042>045-211100-
NORTHEAST NEBRASKA

CITY           SKY/WX    TMP DP  RH WIND       PRES   REMARKS
NORFOLK        CLOUDY    43  36  76 E3        30.28F
ALBION         CLOUDY    43  38  80 NE6       30.28F
BLAIR          CLOUDY    46  32  59 NE8       30.28F
COLUMBUS       CLOUDY    45  36  70 E9        30.29S
FREMONT        CLOUDY    48  34  58 E5        30.30F
TEKAMAH        CLOUDY    46  34  62 N7        30.31R
WAYNE          CLOUDY    42  38  84 E7        30.30F
$$

NEZ050>053-065>068-078-088>093-211100-
SOUTHEAST NEBRASKA

CITY           SKY/WX    TMP DP  RH WIND       PRES   REMARKS
LINCOLN        CLOUDY    51  24  34 E9        30.27F
OMAHA EPPLEY   CLOUDY    49  28  44 E7        30.29F
BEATRICE       CLOUDY    50  28  43 E7        30.25S
FALLS CITY     CLOUDY    49  25  39 E12       30.27R
NEBRASKA CITY  CLOUDY    48  28  45 E3        30.27S
PLATTSMOUTH    CLOUDY    49  24  38 E5        30.28F
$$

NEZ044-045-051>053-067-211100-
OMAHA AREA

CITY           SKY/WX    TMP DP  RH WIND       PRES   REMARKS
OMAHA EPPLEY   CLOUDY    49  28  44 E7        30.29F
BLAIR          CLOUDY    46  32  59 NE8       30.28F
FREMONT        CLOUDY    48  34  58 E5        30.30F
MILLARD        CLOUDY    51  28  40 CALM      30.28F
OFFUTT AFB     CLOUDY    49  26  41 E8        30.28F
PLATTSMOUTH    CLOUDY    49  24  38 E5        30.28F
WAHOO          CLOUDY    47  29  51 NE7       30.28F
$$




USA.gov is the U.S. government's official web portal to all federal, state and local government web resources and services.